Location: Cuesta
(41.0828°N, 3.9602°W)
Time: 00:23:48
(UTC+00:00)

Daily predictions for brighter satellites

Satellite Brightness Start Highest point End
(mag) Time Altitude Azimuth Time Altitude Azimuth Time Altitude Azimuth
Cosmos 1674 Rocket 3.8 00:05:41 64° NW 00:05:41 64° NW 00:09:42 10° N
Cosmos 2151 Rocket 3.9 00:06:19 10° NNW 00:10:13 58° WNW 00:10:13 58° WNW
Cosmos 1898 Rocket 4.1 00:13:33 42° E 00:13:33 42° E 00:18:16 10° NNE
Okean 2 Rocket 3.4 00:11:59 10° NNW 00:16:03 57° WNW 00:16:03 57° WNW
ALOS 2 3.4 00:17:02 41° W 00:17:02 41° W 00:20:43 10° NNW
Cosmos 2181 Rocket 4.2 00:14:36 10° NNW 00:20:35 54° W 00:21:40 48° SW
GEOS 3 Rocket 4.1 00:17:46 10° NE 00:22:15 43° ESE 00:22:15 43° ESE
Cosmos 2074 Rocket 4.0 00:21:27 56° SW 00:22:44 73° W 00:28:58 10° N
Cosmos 1328 4.5 00:29:42 49° NNW 00:29:42 49° NNW 00:32:45 10° N
CENTAUR R/B 3.0 00:35:45 32° WSW 00:38:13 51° NW 00:44:57 10° NNE
Meteor 2-11 Rocket 4.4 00:38:41 59° SSW 00:39:50 78° W 00:45:57 10° N
Cosmos 1461 3.5 00:43:01 50° NE 00:43:01 50° NE 00:45:58 10° NNE
SL-16 R/B 2.1 00:36:35 10° NNW 00:42:18 89° WSW 00:43:10 66° SSE
Cosmos 2237 Rocket 3.6 00:41:50 10° NW 00:46:01 24° W 00:46:01 24° W
Cosmos 292 Rocket 3.8 00:48:11 66° W 00:48:22 67° WNW 00:53:10 10° NNE
Cosmos 2227 Rocket 3.5 00:46:33 23° W 00:48:56 32° WNW 00:53:58 10° N
Cosmos 2082 3.6 00:48:25 66° SW 00:49:15 83° WNW 00:54:54 10° NNE
Cosmos 1943 4.5 00:47:43 10° N 00:52:53 36° ENE 00:56:23 18° ESE
Aureole 1 Rocket 3.5 00:53:40 49° NW 00:53:40 49° NW 00:57:37 10° NNE
USA 238 DEB 4.0 00:59:38 39° SE 01:00:31 41° ESE 01:06:33 10° NE
USA 238 4.0 00:59:40 38° SE 01:00:34 40° ESE 01:06:36 10° NE
Resurs 1-4 Rocket 4.2 00:58:20 10° NE 01:01:32 16° E 01:03:21 14° ESE
Nadezhda 3 Rocket 4.2 00:56:58 10° NNW 01:03:02 55° W 01:04:11 48° SW
BREEZE-M DEB (TANK) 2.8 00:59:03 10° WNW 01:04:15 52° NNE 01:04:15 52° NNE
Cosmos 2218 Rocket 4.2 01:07:06 45° SSE 01:08:51 62° E 01:14:57 10° NNE
Cosmos 2366 rocket 4.1 01:08:29 47° SSE 01:10:15 66° E 01:16:26 10° NNE
Cosmos 1818 3.6 01:05:21 10° NNW 01:10:52 79° ENE 01:12:28 47° SE
H-2A R/B 3.4 01:07:45 10° N 01:11:17 27° WNW 01:11:28 27° WNW
Cosmos 1544 Rocket 4.0 01:09:53 10° N 01:14:13 52° E 01:14:43 49° ESE
Cosmos 372 Rocket 4.2 01:15:43 53° WSW 01:16:33 61° WNW 01:21:43 10° NNE
Cosmos 2219 4.4 01:14:58 26° W 01:17:00 34° WNW 01:22:05 10° N
Cosmos 858 Rocket 4.4 01:20:25 65° SW 01:21:12 83° WNW 01:26:26 10° NNE
Cosmos 1975 Rocket 3.7 01:25:49 43° WNW 01:25:49 43° WNW 01:30:02 10° N
Meteor 1-11 4.3 01:24:59 53° SW 01:26:18 71° W 01:32:06 10° N
Cosmos 2227 4.2 01:26:28 55° S 01:27:44 78° ESE 01:33:31 10° NNE
Cosmos 1844 4.4 01:32:48 35° SE 01:34:24 43° ESE 01:39:51 10° NE
Cosmos 2263 Rocket 3.3 01:33:26 26° W 01:35:28 34° WNW 01:40:30 10° N
IDEFIX/ARIANE 42P 3.3 01:31:14 10° NNE 01:36:14 44° E 01:37:49 35° SE
SL-8 Rocket 4.1 01:37:14 45° SW 01:39:00 65° W 01:45:11 10° N
Cosmos 1455 Rocket 4.4 01:35:39 10° NNW 01:39:05 28° W 01:39:05 28° W
NOSS 3-2 (C) 3.6 01:42:26 36° WSW 01:44:20 53° NW 01:50:16 10° NNE
Cosmos 1937 Rocket 4.3 01:44:19 33° W 01:45:43 39° WNW 01:50:38 10° N
Cosmos 923 Rocket 4.4 01:46:01 10° NNW 01:50:56 42° WSW 01:51:16 42° WSW
Cosmos 1844 Rocket 2.7 01:51:37 45° S 01:53:17 72° ESE 01:58:51 10° NNE
Cosmos 1536 Rocket 3.4 01:54:55 64° SSW 01:55:35 82° W 02:00:01 10° N
CZ-2C R/B 4.0 01:51:16 10° NNE 01:56:12 40° E 01:58:24 26° SE
Cosmos 1867 3.6 01:55:11 46° SW 01:56:50 77° WNW 02:02:21 10° NNE
SL-16 R/B 4.3 01:51:40 10° ESE 01:56:54 29° ENE 02:02:06 10° N
MOZ.5/SAFIR/RUBIN 5/SL-8 3.6 01:59:17 53° S 02:00:21 77° WSW 02:04:59 10° NNW
Cosmos 1727 Rocket 4.0 01:59:44 10° N 02:06:07 87° E 02:09:39 29° S
Helios 1A Rocket 3.7 02:07:37 33° W 02:07:37 33° W 02:10:35 10° NNW
H-2A R/B 3.3 02:05:14 10° NNE 02:09:14 77° ESE 02:10:00 56° S
Cosmos 1606 4.2 02:07:11 10° NW 02:09:18 22° WNW 02:09:18 22° WNW
COBE Rocket 4.3 02:08:10 10° N 02:13:14 57° WNW 02:14:55 39° SW
CZ-2D R/B 2.2 02:09:23 10° NNE 02:14:42 70° ESE 02:17:02 34° S
ALOS 4.0 02:12:49 10° NE 02:16:40 25° E 02:19:41 14° SE
Cosmos 1437 Rocket 2.8 02:16:19 54° WSW 02:16:41 57° WNW 02:20:23 10° N
ADEOS II 2.7 02:13:23 10° NNE 02:18:29 50° E 02:21:20 25° SSE
CZ-2C R/B 2.6 02:15:43 25° SSE 02:18:55 82° ENE 02:24:21 10° NNW
Alouette 2 Rocket 4.5 02:19:17 24° SSE 02:21:19 39° E 02:24:47 10° NNE
BREEZE-M DEB (TANK) 3.8 02:23:34 24° SSE 02:23:34 24° SSE 02:26:09 10° SE
GRACE-FO 1 4.4 02:22:16 60° S 02:22:51 88° E 02:26:24 10° N
GRACE-FO 2 4.4 02:22:42 60° S 02:23:17 90° E 02:26:50 10° N
ASTEX 1 4.1 02:21:25 17° SSE 02:24:59 51° E 02:29:42 10° N
SL-16 R/B 4.2 02:23:47 10° WNW 02:24:59 11° W 02:24:59 11° W
Cosmos 1607 4.0 02:20:02 10° NNW 02:26:28 81° ENE 02:32:44 10° SE
Meteor 1-27 4.4 02:21:21 10° NNW 02:27:02 57° W 02:29:35 32° SSW
ATLAS 5 CENTAUR R/B 2.6 02:26:53 20° SE 02:27:28 21° ESE 02:30:06 10° ENE
Cosmos 2228 3.9 02:24:06 10° NNW 02:27:51 30° W 02:28:11 30° W
FENGYUN 3A 3.9 02:25:25 10° NNE 02:30:47 65° ESE 02:33:58 25° S
Cosmos 1603 3.8 02:25:53 10° NNW 02:31:32 60° WSW 02:34:48 25° S
Cosmos 1812 3.7 02:28:51 10° N 02:32:14 40° ENE 02:34:37 17° SE
Cosmos 1943 3.9 02:31:52 10° NW 02:36:48 32° WSW 02:38:06 29° SW
Orbus 7S? 3.5 02:36:30 10° NW 02:39:33 54° SW 02:45:09 10° SSE
Timation 2 Rocket 4.1 02:37:21 26° SSW 02:41:18 80° ESE 02:47:41 10° NNE
Resurs 1-4 Rocket 2.2 02:36:30 10° N 02:41:44 63° WNW 02:44:25 29° SW
Cosmos 2058 3.4 02:40:06 23° SSE 02:42:22 53° E 02:46:22 10° NNE
NPP 4.1 02:37:42 10° N 02:42:52 48° WNW 02:45:31 27° SW
Cosmos 1892 Rocket 3.5 02:43:30 31° S 02:45:36 84° W 02:50:03 10° N
BlueWalker 3 4.2 02:44:15 10° NNW 02:47:28 26° NNE 02:50:41 10° E
Cosmos 724 4.2 02:44:46 10° NNW 02:50:37 87° WSW 02:56:29 10° SSE
USA 238 DEB 4.4 02:47:02 17° WSW 02:51:24 40° NW 02:57:41 10° NNE
USA 238 4.4 02:47:05 17° WSW 02:51:26 40° NW 02:57:44 10° NNE
Cosmos 2058 Rocket 3.5 02:47:36 10° N 02:51:59 60° E 02:56:17 10° SSE
NOSS 2-2 (C) 3.0 02:56:39 33° S 02:57:53 59° ESE 03:00:57 10° NE
Cosmos 1544 2.8 02:57:59 31° SSE 02:58:53 51° E 03:01:26 10° NNE
Cosmos 1605 Rocket 4.2 02:55:31 12° S 03:01:09 69° E 03:07:13 10° NNE
Envisat 4.2 02:56:43 10° NNE 03:01:24 37° E 03:06:03 10° SSE
Cosmos 1048 Rocket 4.3 02:59:38 10° NNW 03:04:39 47° WSW 03:08:37 16° S
NOSS 2-3 (D) 4.0 03:04:12 20° S 03:06:17 41° ESE 03:09:53 10° NE
USA 276 4.2 03:05:48 13° SSE 03:06:40 15° SE 03:08:24 10° E
Cosmos 921 Rocket 4.0 03:03:49 10° NW 03:07:19 26° W 03:08:23 23° WSW
Cosmos 1833 Rocket 4.3 03:03:11 10° N 03:08:24 37° ENE 03:13:35 10° SE
Iridium 4 Rocket 3.5 03:03:51 10° N 03:08:29 76° E 03:13:33 10° S
Cosmos 1626 Rocket 4.2 03:05:27 12° S 03:09:29 55° E 03:13:48 10° NNE
NOSS 2-2 (D) 3.4 03:08:22 23° S 03:10:10 47° ESE 03:13:12 10° NE
Meteor 1-28 Rocket 3.1 03:10:55 20° S 03:13:12 58° W 03:16:44 10° NNW
Cosmos 1125 Rocket 4.0 03:10:51 21° SW 03:14:12 48° WNW 03:19:20 10° N
IDEFIX/ARIANE 42P 4.0 03:11:22 10° NNW 03:15:26 24° WNW 03:18:33 14° WSW
Cosmos 1934 Rocket 4.3 03:11:34 18° SSW 03:16:11 55° W 03:22:26 10° N
Cosmos-2242 4.0 03:13:44 10° N 03:17:54 47° E 03:22:01 10° SSE
Cosmos 2123 Rocket 4.3 03:18:23 10° NNW 03:24:19 49° W 03:30:04 11° SSW
Iridium 2 4.5 03:24:25 16° W 03:24:33 16° W 03:26:10 10° NW
Cosmos 1943 Rocket 4.4 03:21:30 10° SE 03:25:31 20° E 03:29:31 10° NE
Cosmos 1782 3.2 03:25:43 10° N 03:29:31 60° E 03:33:18 10° SSE
Genesis I 2.9 03:28:30 10° NW 03:32:07 73° WSW 03:35:43 10° SSE
USA 267 3.3 03:25:49 10° NE 03:32:22 75° SE 03:38:21 13° SW
UNK 3.7 03:28:23 10° S 03:32:58 74° WSW 03:37:33 10° NNW
NOSS 2-3 (E) 3.1 03:30:56 17° SW 03:33:37 83° NW 03:37:30 10° NNE
IRAS Rocket 4.2 03:28:17 10° NNE 03:33:46 77° WNW 03:39:09 11° SSW
CZ-2C R/B 4.4 03:31:31 10° NNW 03:35:46 25° WNW 03:39:25 12° WSW
SAR-Lupe-1 4.2 03:32:39 10° N 03:36:11 58° WNW 03:39:09 14° SSW
Cosmos 1844 Rocket 4.5 03:33:55 10° W 03:37:44 18° NW 03:41:33 10° N
Cosmos 2150 Rocket 4.3 03:33:55 14° SW 03:38:13 54° WNW 03:43:27 10° N
Cosmos 220 Rocket 3.8 03:34:40 10° NNW 03:38:49 80° WSW 03:42:55 10° SSE
NOAA 11 4.4 03:34:05 10° NNE 03:39:35 76° ESE 03:45:01 10° S
NOSS 2-3 (C) 3.2 03:37:13 16° SW 03:40:03 70° NW 03:43:56 10° NNE
SL-16 R/B 2.8 03:34:11 10° S 03:40:10 48° W 03:46:11 10° NNW
BREEZE M DEB (TANK) 4.3 03:37:13 10° WNW 03:47:16 58° NNE 03:50:37 10° E
Meteor 2-3 Rocket 3.8 03:42:26 10° S 03:48:14 87° W 03:54:04 10° N
Cosmos 1238 Rocket 3.3 03:48:17 10° NNW 03:50:54 25° W 03:53:10 11° SW
Cosmos 614 Rocket 3.9 03:48:19 10° NNW 03:53:27 77° WSW 03:58:31 10° SSE
BREEZE-M DEB (TANK) 2.6 03:46:13 10° WSW 03:53:39 78° NNW 03:56:20 10° NE
ALOS 3.3 03:49:47 10° N 03:53:50 31° WNW 03:57:53 10° SW
CZ-2D R/B 4.0 03:50:58 10° NNW 03:54:04 16° WNW 03:57:10 10° W
Cosmos 2173 Rocket 4.4 03:49:55 10° S 03:56:04 65° E 04:02:09 10° NNE
Okean 1-7 Rocket 3.6 03:52:20 10° SSW 03:56:48 75° W 04:01:16 10° N
ADEOS II 3.6 03:53:50 10° NNW 03:57:43 21° WNW 04:01:34 10° WSW
CZ-2C R/B 4.5 03:57:57 10° WSW 03:59:51 12° W 04:01:45 10° WNW
Gbstr 26 Del rocket 4.2 03:54:54 10° SW 04:00:59 75° SE 04:08:21 10° NE
Cosmos 1515 3.5 03:57:45 10° NNW 04:01:12 60° W 04:04:37 10° S
CZ-2C R/B 2.2 04:00:03 10° NNE 04:04:39 84° WNW 04:09:16 10° SSW
Lacrosse 5 2.4 04:00:13 10° SSW 04:05:07 55° SE 04:10:05 10° NE
Cosmos 2082 Rocket 4.4 04:01:20 10° N 04:06:20 31° ENE 04:11:17 10° ESE
SWARM A 4.3 04:04:34 10° S 04:08:05 77° W 04:11:38 10° N
Cosmos 2278 Rocket 2.4 04:03:52 10° SSW 04:09:32 80° ESE 04:15:13 10° NNE
Cosmos 1271 Rocket 2.7 04:06:03 10° SSW 04:09:32 53° W 04:13:05 10° N
Cosmos 1812 Rocket 3.5 04:05:28 10° NNW 04:09:49 72° W 04:14:10 10° S
Thor Agena Rocket 3.8 04:06:10 10° NNE 04:11:28 78° ESE 04:16:42 10° S
